Home   Weather   Rouen   Past weeks

Flag for France Past Weather in Rouen, Upper Normandy, France — Yesterday and Last 2 Weeks

Now
68 °F

Partly sunny.


Feels Like: 68 °F
Forecast: 59 / 68 °F
Wind: 9 mph from Southwest

Location: Rouen Airport

Current Time: Jul 26, 2017 at 8:47:06 pm

Latest Report: Jul 26, 2017 at 8:00 pm


Visibility: N/A

Pressure: 29.83 "Hg

Humidity: 88%

Dew Point: 64 °F

Location of RouenLocation

Past Weather in Rouen — Graph

°F

Rouen Temperature Yesterday

Maximum temperature yesterday: 72 °F (at 6:30 pm)
Minimum temperature yesterday: 55 °F (at 11:30 pm)
Average temperature yesterday: 63 °F

High & Low Weather Summary for the Past Weeks

 TemperatureHumidityPressure
High93 °F (Jul 18, 4:00 pm)100% (Jul 12, 7:30 am)30.30 "Hg (Jul 12, 7:30 am)
Low48 °F (Jul 14, 4:00 am)30% (Jul 18, 2:30 pm)29.74 "Hg (Jul 19, 2:00 am)
Average65 °F71%30.00 "Hg
* Reported Jul 11 7:00 pm — Jul 26 7:00 pm, Rouen. Weather by CustomWeather, © 2017

Note: Actual official high and low records may vary slightly from our data, if they occured in-between our weather recording intervals... More about our weather records

Advertising

Rouen Weather History for the Previous 24 Hours

Scroll right to see more
 ConditionsComfort  
Time TempWeatherWind HumidityBarometerVisibility
7:00 pm
Wed, Jul 26
66 °FBroken clouds.10 mph94%29.83 "HgN/A
6:30 pm66 °FPartly sunny.12 mph94%29.83 "HgN/A
6:00 pm66 °FPartly sunny.9 mph94%29.83 "HgN/A
5:30 pm66 °FDrizzle. Mostly cloudy.8 mph88%29.83 "Hg4 mi
5:00 pm66 °FCloudy.10 mph88%29.86 "HgN/A
4:30 pm66 °FMostly cloudy.9 mph94%29.86 "HgN/A
4:00 pm66 °FLow clouds.10 mph94%29.86 "HgN/A
3:30 pm66 °FLight rain. Fog.12 mph94%29.86 "Hg2 mi
3:00 pm64 °FDrizzle. Fog.13 mph94%29.86 "Hg2 mi
2:30 pm64 °FDrizzle. Fog.12 mph94%29.86 "Hg2 mi
2:00 pm63 °FDrizzle. Fog.13 mph94%29.86 "Hg3 mi
1:30 pm64 °FLight rain. Fog.12 mph88%29.89 "Hg2 mi
1:00 pm66 °FLight rain. Cloudy.13 mph78%29.86 "HgN/A
12:30 pm68 °FLight rain. Mostly cloudy.15 mph64%29.86 "HgN/A
12:00 pm70 °FBroken clouds.14 mph64%29.86 "HgN/A
11:30 am70 °FMostly cloudy.13 mph60%29.89 "HgN/A
11:00 am68 °FOvercast.10 mph60%29.89 "HgN/A
10:30 am68 °FBroken clouds.12 mph60%29.89 "HgN/A
10:00 am64 °FPartly sunny.10 mph68%29.89 "HgN/A
9:30 am63 °FSunny.8 mph73%29.89 "Hg10 mi
9:00 am61 °FSunny.6 mph77%29.89 "Hg10 mi
8:30 am57 °FSunny.5 mph88%29.92 "Hg10 mi
8:00 am55 °FClear.6 mph94%29.92 "Hg6 mi
7:30 am54 °FClear.6 mph94%29.92 "Hg5 mi
7:00 am52 °FClear.2 mph94%29.92 "Hg4 mi
6:30 am50 °FFog.3 mph100%29.92 "Hg3 mi
6:00 am50 °FClear.3 mph100%29.92 "Hg4 mi
5:30 am52 °FLight rain. Fog.6 mph94%29.92 "Hg2 mi
5:00 am50 °FLight fog.5 mph100%29.92 "Hg2 mi
4:30 am52 °FClear.2 mph94%29.92 "Hg4 mi
4:00 am50 °FClear.3 mph100%29.92 "Hg4 mi
3:30 am52 °FClear.5 mph94%29.95 "Hg4 mi
3:00 am52 °FClear.2 mph94%29.95 "Hg4 mi
2:30 am52 °FClear.No wind100%29.95 "Hg5 mi
2:00 am54 °FPassing clouds.1 mph94%29.95 "HgN/A
1:30 am54 °FPassing clouds.No wind94%29.95 "HgN/A
1:00 am54 °FPassing clouds.2 mph94%29.98 "HgN/A
12:30 am54 °FClear.3 mph88%29.98 "Hg10 mi
12:00 am54 °FClear.3 mph88%29.98 "Hg10 mi
11:30 pm
Tue, Jul 25
55 °FPassing clouds.1 mph82%29.98 "HgN/A
11:00 pm61 °FPassing clouds.3 mph72%29.98 "HgN/A
10:30 pm61 °FClear.5 mph72%29.98 "Hg10 mi
10:00 pm61 °FClear.3 mph68%29.98 "Hg10 mi
9:30 pm64 °FSunny.3 mph64%29.98 "Hg10 mi
9:00 pm64 °FSunny.8 mph64%29.98 "Hg10 mi
8:30 pm66 °FPassing clouds.9 mph56%29.98 "HgN/A
8:00 pm68 °FPartly sunny.9 mph53%29.98 "HgN/A
Weather by CustomWeather, © 2017

See weather overviewHow to use our weather pages